sat.trackr.live / text

‹ back to catalog

YAOGAN-34 03

NORAD 54249 · 2022-154A

PAYLOAD ACTIVE UNKNOWN

§ Identity

Operator
Country
PRC
Launch date
2022-11-15
Launch site
JSC
Launch vehicle
Mass (kg)
RCS (m²)

External: N2YO · Heavens-Above · Gunter

§ Orbital elements

Epoch: 2026-05-25T04:48:40.544928Z

Period
107.03 min
Inclination
63.4070°
Eccentricity
0.0074455
Mean motion
13.45439183 rev/d
Perigee alt
1,033.5 km
Apogee alt
1,144.7 km
Semi-major
7,467.2 km
B*
8.1657e-5
RAAN
321.2282°
Arg perigee
355.3776°
Mean anomaly
4.6554°
Rev number
17,316

§ Raw data

YAOGAN-34 031 54249U 22154A   26145.20046927 -.00000041  00000+0  81657-4 0  99922 54249  63.4070 321.2282 0074455 355.3776   4.6554 13.45439183173160

JSON: /api/v1/satellites/54249 · /tle

For live sub-satellite position, see the globe view (requires WebGL).

§ Visibility from observer

Set your observer location to see the next 7 days of passes ≥ 10°. The values pass through the URL so the page stays shareable.

No JS? Fill the form by hand. The geolocation button needs JavaScript.